KM4NDN Weather Reports


time (UTC)temp
C
wind
direction
speed
KPH
gust
KPH
rain 1hr
cm
rain 24hr
cm
rain mn
cm
humidity
%
barometer
mb
20260903043854 27 248 6.4 11.3 0.00 0.00 0.00 79 1012.7
20260903043349 27 280 9.7 14.5 0.00 0.00 0.00 79 1012.8
20260903042847 27 254 8.0 11.3 0.00 0.00 0.00 79 1012.6
20260903042343 27 247 8.0 11.3 0.00 0.00 0.00 78 1012.6
20260903041839 27 234 6.4 11.3 0.00 0.00 0.00 78 1012.5
20260903041335 27 230 11.3 12.9 0.00 0.00 0.00 78 1012.5
20260903040831 27 246 9.7 12.9 0.00 0.00 0.00 77 1012.2
20260903040329 27 225 11.3 14.5 0.00 0.00 0.00 77 1012.3
20260903035826 27 234 12.9 12.9 0.00 0.00 0.00 77 1012.3
20260903035321 27 229 6.4 12.9 0.00 0.00 0.00 77 1012.2
20260903034816 27 247 9.7 24.1 0.00 0.00 0.00 77 1012.3
20260903034311 27 262 11.3 14.5 0.00 0.00 0.00 77 1012.2
20260903033807 27 243 11.3 24.1 0.00 0.00 0.00 76 1012.1
20260903033307 27 269 9.7 14.5 0.00 0.00 0.00 77 1012.0
20260903032801 27 269 11.3 20.9 0.00 0.00 0.00 77 1011.6
20260903032257 27 256 16.1 20.9 0.00 0.00 0.00 77 1011.9
20260903031753 27 239 12.9 20.9 0.00 0.00 0.00 77 1011.7
20260903031252 27 234 14.5 17.7 0.00 0.00 0.00 77 1011.7
20260903030748 27 247 4.8 12.9 0.00 0.00 0.00 77 1011.6
20260903030243 27 246 8.0 11.3 0.00 0.00 0.00 77 1011.7
20260903025739 27 239 11.3 20.9 0.00 0.00 0.00 77 1011.9
20260903025234 27 231 8.0 12.9 0.00 0.00 0.00 77 1012.2
20260903024729 27 191 6.4 17.7 0.00 0.00 0.00 78 1012.0
20260903024228 27 286 9.7 11.3 0.00 0.00 0.00 78 1012.3
20260903023724 27 232 6.4 9.7 0.00 0.00 0.00 78 1012.4
20260903023220 27 238 3.2 11.3 0.00 0.00 0.00 78 1012.5
20260903022719 27 211 9.7 11.3 0.00 0.00 0.00 78 1012.5
20260903022218 27 235 4.8 9.7 0.00 0.00 0.00 78 1012.7
20260903021719 27 228 1.6 6.4 0.00 0.00 0.00 78 1012.7
20260903021214 27 204 6.4 6.4 0.00 0.00 0.00 78 1012.7
20260903020713 27 214 3.2 6.4 0.00 0.00 0.00 78 1012.6
20260903020208 27 222 4.8 9.7 0.00 0.00 0.00 78 1012.7
20260903015704 27 247 3.2 6.4 0.00 0.00 0.00 78 1012.9
20260903015159 27 164 4.8 6.4 0.00 0.00 0.00 78 1013.0
20260903014654 27 181 3.2 6.4 0.00 0.00 0.00 78 1012.8
20260903014153 27 220 6.4 9.7 0.00 0.00 0.00 78 1012.8
20260903013648 27 199 6.4 6.4 0.00 0.00 0.00 78 1012.8
20260903013148 27 220 1.6 1.6 0.00 0.00 0.00 77 1012.8
20260903012647 27 213 3.2 3.2 0.00 0.00 0.00 77 1012.8
20260903012146 27 237 6.4 6.4 0.00 0.00 0.00 77 1012.8
20260903011641 27 211 3.2 3.2 0.00 0.00 0.00 77 1012.7
20260903011140 27 231 3.2 3.2 0.00 0.00 0.00 77 1012.6
20260903010636 27 192 3.2 3.2 0.00 0.00 0.00 76 1012.6
20260903010135 27 192 1.6 1.6 0.00 0.00 0.00 75 1012.7
20260903005635 27 192 1.6 1.6 0.00 0.00 0.00 75 1012.5
20260903005130 27 202 1.6 1.6 0.00 0.00 0.00 75 1012.5
20260903004625 28 229 1.6 3.2 0.00 0.00 0.00 74 1012.6
20260903004120 28 217 1.6 1.6 0.00 0.00 0.00 74 1012.8
20260903003616 28 217 1.6 1.6 0.00 0.00 0.00 73 1012.6
20260903003111 28 230 3.2 4.8 0.00 0.00 0.00 72 1012.4
20260903002606 28 214 1.6 4.8 0.00 0.00 0.00 72 1012.5
20260903002100 28 238 3.2 3.2 0.00 0.00 0.00 71 1012.5
20260903001555 29 240 1.6 4.8 0.00 0.00 0.00 70 1012.4
20260903001054 29 240 3.2 4.8 0.00 0.00 0.00 69 1012.2
20260903000551 29 233 3.2 4.8 0.00 0.00 0.00 69 1012.4
20260903000050 30 232 6.4 6.4 0.00 0.00 0.00 68 1012.3
20260902235549 30 254 3.2 4.8 0.00 0.00 0.00 67 1012.5
20260902235044 30 223 6.4 11.3 0.00 0.00 0.00 66 1012.5
20260902234544 30 274 6.4 12.9 0.00 0.00 0.00 65 1012.3
20260902234043 30 243 6.4 12.9 0.00 0.00 0.00 65 1012.5
20260902233538 30 257 8.0 12.9 0.00 0.00 0.00 65 1012.4
20260902233033 30 242 6.4 6.4 0.00 0.00 0.00 64 1012.3
20260902232532 31 247 6.4 9.7 0.00 0.00 0.00 64 1012.3
20260902232032 31 248 6.4 6.4 0.00 0.00 0.00 64 1012.2
20260902231527 31 250 8.0 11.3 0.00 0.00 0.00 63 1012.3
20260902231026 31 232 6.4 9.7 0.00 0.00 0.00 63 1012.3
20260902230521 31 257 14.5 16.1 0.00 0.00 0.00 63 1012.2
20260902230020 31 259 9.7 16.1 0.00 0.00 0.00 63 1012.4
20260902225516 31 262 9.7 12.9 0.00 0.00 0.00 63 1012.1
20260902225015 31 249 8.0 9.7 0.00 0.00 0.00 63 1012.0
20260902224514 31 264 6.4 11.3 0.00 0.00 0.00 63 1012.3
20260902224011 32 249 9.7 12.9 0.00 0.00 0.00 62 1012.5
20260902223507 32 228 9.7 14.5 0.00 0.00 0.00 62 1012.2
20260902223006 32 257 8.0 9.7 0.00 0.00 0.00 62 1012.5
20260902222505 31 258 14.5 16.1 0.00 0.00 0.00 62 1012.2
20260902222004 31 258 9.7 14.5 0.00 0.00 0.00 62 1012.3
20260902221503 32 251 11.3 14.5 0.00 0.00 0.00 62 1012.4
20260902220959 32 248 8.0 11.3 0.00 0.00 0.00 63 1012.3
20260902220459 32 237 9.7 9.7 0.00 0.00 0.00 62 1012.3
20260902215954 32 246 6.4 11.3 0.00 0.00 0.00 61 1012.3
20260902215450 31 251 4.8 12.9 0.00 0.00 0.00 61 1012.4
20260902214945 31 224 9.7 17.7 0.00 0.00 0.00 60 1012.5
20260902214444 31 238 14.5 27.4 0.00 0.00 0.00 61 1012.4
20260902213938 31 257 8.0 17.7 0.00 0.00 0.00 61 1012.6
20260902213435 32 252 4.8 11.3 0.00 0.00 0.00 59 1012.6
20260902212933 32 233 8.0 12.9 0.00 0.00 0.00 57 1012.4
20260902212430 32 237 9.7 14.5 0.00 0.00 0.00 56 1012.7
20260902211926 33 244 12.9 20.9 0.00 0.00 0.00 54 1012.6
20260902211421 33 247 16.1 20.9 0.00 0.00 0.00 53 1012.6
20260902210917 33 278 19.3 22.5 0.00 0.00 0.00 54 1012.7
20260902210416 33 250 9.7 20.9 0.00 0.00 0.00 55 1012.7
20260902205914 33 243 11.3 24.1 0.00 0.00 0.00 55 1012.7
20260902205409 33 240 17.7 25.7 0.00 0.00 0.00 55 1012.7
20260902204906 33 260 19.3 24.1 0.00 0.00 0.00 54 1012.7
20260902204405 33 202 11.3 22.5 0.00 0.00 0.00 56 1012.9
20260902203901 33 256 11.3 16.1 0.00 0.00 0.00 55 1012.9
20260902203356 33 217 9.7 11.3 0.00 0.00 0.00 57 1013.0
20260902202855 33 236 14.5 20.9 0.00 0.00 0.00 55 1013.2
20260902202351 33 256 9.7 11.3 0.00 0.00 0.00 58 1013.0
20260902201848 32 222 11.3 22.5 0.00 0.00 0.00 58 1013.1
20260902201348 33 260 9.7 12.9 0.00 0.00 0.00 57 1013.2
20260902200843 33 246 22.5 25.7 0.00 0.00 0.00 54 1013.3
20260902200338 33 265 11.3 16.1 0.00 0.00 0.00 56 1013.3
20260902195833 33 260 9.7 17.7 0.00 0.00 0.00 58 1013.2
20260902195332 33 262 12.9 14.5 0.00 0.00 0.00 57 1013.3
20260902194827 33 258 11.3 17.7 0.00 0.00 0.00 56 1013.2
20260902194322 33 246 9.7 17.7 0.00 0.00 0.00 58 1013.4
20260902193818 33 268 16.1 22.5 0.00 0.00 0.00 57 1013.4
20260902193313 33 244 11.3 17.7 0.00 0.00 0.00 58 1013.4
20260902192812 33 271 1.6 6.4 0.00 0.00 0.00 60 1013.6
20260902192311 33 233 11.3 20.9 0.00 0.00 0.00 60 1013.8
20260902191810 33 228 11.3 12.9 0.00 0.00 0.00 58 1013.5
20260902191306 33 276 11.3 14.5 0.00 0.00 0.00 57 1013.8
20260902190806 33 248 12.9 16.1 0.00 0.00 0.00 59 1013.7
20260902190305 32 251 14.5 17.7 0.00 0.00 0.00 59 1013.7
20260902185802 33 257 16.1 22.5 0.00 0.00 0.00 58 1013.8
20260902185257 33 268 11.3 24.1 0.00 0.00 0.00 61 1013.9
20260902184753 33 184 20.9 24.1 0.00 0.00 0.00 59 1013.9
20260902184248 32 264 11.3 17.7 0.00 0.00 0.00 59 1013.8
20260902183744 32 268 8.0 20.9 0.00 0.00 0.00 59 1013.9
20260902183240 32 224 12.9 16.1 0.00 0.00 0.00 59 1014.3
20260902182736 32 267 12.9 17.7 0.00 0.00 0.00 60 1014.0
20260902182232 32 246 17.7 20.9 0.00 0.00 0.00 59 1014.0
20260902181728 32 211 14.5 14.5 0.00 0.00 0.00 60 1014.1
20260902181228 32 248 12.9 16.1 0.00 0.00 0.00 60 1014.3
20260902180723 32 230 6.4 12.9 0.00 0.00 0.00 60 1014.3
20260902180218 32 273 8.0 12.9 0.00 0.00 0.00 57 1014.6
20260902175713 32 327 12.9 20.9 0.00 0.00 0.00 58 1014.5
20260902175209 32 241 11.3 17.7 0.00 0.00 0.00 61 1014.4
20260902174704 32 268 11.3 16.1 0.00 0.00 0.00 63 1014.4
20260902174200 32 263 14.5 16.1 0.00 0.00 0.00 63 1014.4
20260902173656 32 235 12.9 14.5 0.00 0.00 0.00 64 1014.5
20260902173150 32 254 9.7 14.5 0.00 0.00 0.00 65 1014.6
20260902172645 31 248 16.1 16.1 0.00 0.00 0.00 64 1014.8
20260902172144 31 261 12.9 16.1 0.00 0.00 0.00 62 1014.7
20260902171639 31 260 17.7 17.7 0.00 0.00 0.00 63 1014.8
20260902171135 31 233 11.3 12.9 0.00 0.00 0.00 65 1014.8
20260902170631 31 227 9.7 14.5 0.00 0.00 0.00 65 1014.9
20260902170126 31 263 12.9 16.1 0.00 0.00 0.00 65 1015.2
20260902165621 31 273 8.0 14.5 0.00 0.00 0.00 64 1015.3
20260902165120 31 288 9.7 12.9 0.00 0.00 0.00 64 1015.3
20260902164616 31 242 3.2 12.9 0.00 0.00 0.00 70 1015.2
20260902164115 31 255 8.0 12.9 0.00 0.00 0.00 67 1015.4
20260902163610 30 213 3.2 11.3 0.00 0.00 0.00 70 1015.3
20260902163109 30 287 6.4 11.3 0.00 0.00 0.00 71 1015.4
20260902162608 30 262 8.0 11.3 0.00 0.00 0.00 71 1015.1
20260902162103 30 216 6.4 9.7 0.00 0.00 0.00 71 1015.4
20260902161558 30 262 6.4 12.9 0.00 0.00 0.00 69 1015.3
20260902161054 31 263 17.7 20.9 0.00 0.00 0.00 68 1015.3
20260902160550 30 271 9.7 14.5 0.00 0.00 0.00 71 1015.3
20260902160045 30 267 9.7 14.5 0.00 0.00 0.00 67 1015.1
20260902155538 30 213 9.7 12.9 0.00 0.00 0.00 68 1015.2
20260902155037 30 262 8.0 12.9 0.00 0.00 0.00 69 1015.2
20260902154533 30 241 9.7 12.9 0.00 0.00 0.00 69 1015.1
20260902154032 30 288 6.4 14.5 0.00 0.00 0.00 71 1015.1
20260902153531 30 219 6.4 11.3 0.00 0.00 0.00 71 1015.3
20260902153027 29 226 8.0 12.9 0.00 0.00 0.00 71 1015.2
20260902152523 30 266 9.7 14.5 0.00 0.00 0.00 69 1015.2
20260902152018 29 241 8.0 12.9 0.00 0.00 0.00 69 1015.2
20260902151514 29 270 9.7 12.9 0.00 0.00 0.00 70 1015.4
20260902151013 29 240 4.8 12.9 0.00 0.00 0.00 69 1015.1
20260902150509 30 260 8.0 14.5 0.00 0.00 0.00 70 1015.0
20260902150010 29 227 8.0 14.5 0.00 0.00 0.00 71 1015.2
20260902145505 29 250 12.9 14.5 0.00 0.00 0.00 71 1015.0
20260902144959 28 262 6.4 12.9 0.00 0.00 0.00 72 1015.0
20260902144456 28 237 14.5 17.7 0.00 0.00 0.00 73 1015.0
20260902143955 28 236 9.7 11.3 0.00 0.00 0.00 73 1015.1
20260902143451 28 254 4.8 12.9 0.00 0.00 0.00 74 1015.1
20260902142946 28 203 9.7 16.1 0.00 0.00 0.00 74 1015.0
20260902142443 28 287 11.3 14.5 0.00 0.00 0.00 75 1014.9
20260902141943 28 237 9.7 12.9 0.00 0.00 0.00 76 1015.0
20260902141438 27 196 4.8 6.4 0.00 0.00 0.00 78 1015.1
20260902140937 27 253 9.7 12.9 0.00 0.00 0.00 79 1015.0
20260902140433 27 242 9.7 11.3 0.00 0.00 0.00 79 1015.1
20260902135932 27 252 9.7 11.3 0.00 0.00 0.00 78 1014.8
20260902135429 27 227 4.8 14.5 0.00 0.00 0.00 78 1015.0
20260902134927 27 248 8.0 20.9 0.00 0.00 0.00 78 1014.9
20260902134423 27 254 11.3 16.1 0.00 0.00 0.00 79 1014.8
20260902133919 27 269 9.7 14.5 0.00 0.00 0.00 80 1015.0
20260902133419 27 222 14.5 14.5 0.00 0.00 0.00 79 1015.0
20260902132914 27 258 14.5 14.5 0.00 0.00 0.00 81 1014.9
20260902132409 26 282 9.7 17.7 0.00 0.00 0.00 81 1015.0
20260902131903 26 257 9.7 16.1 0.00 0.00 0.00 82 1014.7
20260902131401 26 251 8.0 12.9 0.00 0.00 0.00 83 1014.8
20260902130859 26 234 4.8 11.3 0.00 0.00 0.00 84 1014.9
20260902130356 26 239 6.4 12.9 0.00 0.00 0.00 85 1014.9
20260902125850 25 224 6.4 12.9 0.00 0.00 0.00 85 1014.6
20260902125346 25 249 9.7 11.3 0.00 0.00 0.00 86 1015.2
20260902124843 25 222 12.9 12.9 0.00 0.00 0.00 86 1014.7
20260902124338 25 249 6.4 11.3 0.00 0.00 0.00 87 1015.0
20260902123833 25 241 8.0 12.9 0.00 0.00 0.00 87 1014.9
20260902123330 25 230 4.8 6.4 0.00 0.00 0.00 87 1015.0
20260902122828 25 238 4.8 6.4 0.00 0.00 0.00 87 1015.1
20260902122324 25 221 4.8 11.3 0.00 0.00 0.00 87 1014.9
20260902121823 25 258 6.4 9.7 0.00 0.00 0.00 87 1014.8
20260902121319 25 237 6.4 11.3 0.00 0.00 0.00 87 1015.0
20260902120814 25 237 12.9 14.5 0.00 0.00 0.00 87 1014.6
20260902120311 25 231 6.4 11.3 0.00 0.00 0.00 88 1014.8
20260902115805 25 228 4.8 6.4 0.00 0.00 0.00 88 1014.9
20260902115306 25 242 4.8 6.4 0.00 0.00 0.00 88 1014.7
20260902114758 25 223 4.8 9.7 0.00 0.00 0.00 87 1014.7
20260902114254 25 225 6.4 9.7 0.00 0.00 0.00 87 1014.6
20260902113753 25 242 6.4 11.3 0.00 0.00 0.00 87 1014.7
20260902113249 25 230 6.4 6.4 0.00 0.00 0.00 88 1014.5
20260902112748 24 252 4.8 6.4 0.00 0.00 0.00 88 1014.5
20260902112245 24 229 6.4 11.3 0.00 0.00 0.00 89 1014.4
20260902111740 24 226 6.4 9.7 0.00 0.00 0.00 89 1014.1
20260902111237 23 243 6.4 9.7 0.00 0.00 0.00 90 1014.5
20260902110732 23 234 6.4 9.7 0.00 0.00 0.00 90 1014.4
20260902110228 23 226 4.8 9.7 0.00 0.00 0.00 90 1014.2
20260902105727 23 236 6.4 6.4 0.00 0.00 0.00 90 1014.2
20260902105223 23 223 8.0 9.7 0.00 0.00 0.00 90 1014.3
20260902104718 23 223 6.4 6.4 0.00 0.00 0.00 91 1014.2
20260902104214 23 239 6.4 6.4 0.00 0.00 0.00 91 1014.3
20260902103713 23 230 4.8 6.4 0.00 0.00 0.00 91 1014.3
20260902103208 23 231 6.4 6.4 0.00 0.00 0.00 92 1014.3
20260902102704 23 222 4.8 9.7 0.00 0.00 0.00 92 1014.4
20260902102201 23 232 6.4 6.4 0.00 0.00 0.00 92 1014.5
20260902101701 23 243 4.8 4.8 0.00 0.00 0.00 92 1014.2
20260902101156 23 228 3.2 6.4 0.00 0.00 0.00 92 1014.4
20260902100655 23 221 3.2 4.8 0.00 0.00 0.00 92 1014.4
20260902100151 23 217 3.2 4.8 0.00 0.00 0.00 92 1014.4
20260902095650 23 215 4.8 4.8 0.00 0.00 0.00 93 1014.3
20260902095144 23 231 4.8 4.8 0.00 0.00 0.00 93 1014.5
20260902094639 23 227 4.8 4.8 0.00 0.00 0.00 93 1014.4
20260902094135 23 211 1.6 3.2 0.00 0.00 0.00 93 1014.4
20260902093634 23 220 4.8 6.4 0.00 0.00 0.00 93 1014.4
20260902093130 23 205 3.2 6.4 0.00 0.00 0.00 93 1014.2
20260902092624 23 218 3.2 6.4 0.00 0.00 0.00 93 1014.3
20260902092119 23 194 3.2 6.4 0.00 0.00 0.00 93 1014.4
20260902091614 23 219 4.8 6.4 0.00 0.00 0.00 93 1014.4
20260902091111 23 224 3.2 6.4 0.00 0.00 0.00 93 1014.5
20260902090607 23 196 3.2 4.8 0.00 0.00 0.00 93 1014.4
20260902090105 23 183 1.6 3.2 0.00 0.00 0.00 93 1014.4
20260902085600 23 193 1.6 3.2 0.00 0.00 0.00 93 1014.5
20260902085055 23 211 3.2 3.2 0.00 0.00 0.00 93 1014.6
20260902084551 23 212 3.2 3.2 0.00 0.00 0.00 93 1014.4
20260902084047 23 194 3.2 3.2 0.00 0.00 0.00 93 1014.4
20260902083542 23 194 1.6 3.2 0.00 0.00 0.00 93 1014.5
20260902083042 23 194 3.2 3.2 0.00 0.00 0.00 93 1014.6
20260902082537 23 195 0.0 0.0 0.00 0.00 0.00 93 1014.5
20260902082034 23 195 1.6 1.6 0.00 0.00 0.00 93 1014.5
20260902081530 23 195 0.0 0.0 0.00 0.00 0.00 93 1014.4
20260902081030 23 195 0.0 0.0 0.00 0.00 0.00 93 1014.4
20260902080525 23 195 1.6 1.6 0.00 0.00 0.00 93 1014.3
20260902080022 23 195 3.2 3.2 0.00 0.00 0.00 93 1014.1
20260902075516 23 209 0.0 1.6 0.00 0.00 0.00 93 1013.9
20260902075012 23 202 3.2 3.2 0.00 0.00 0.00 93 1013.9
20260902074507 23 209 1.6 3.2 0.00 0.00 0.00 93 1014.0
20260902074007 23 214 1.6 3.2 0.00 0.00 0.00 93 1014.0
20260902073503 23 217 1.6 3.2 0.00 0.00 0.00 93 1013.9
20260902072959 23 184 0.0 3.2 0.00 0.00 0.00 93 1014.0
20260902072454 23 223 0.0 4.8 0.00 0.00 0.00 94 1013.9
20260902071951 23 173 3.2 4.8 0.00 0.00 0.00 94 1014.1
20260902071450 23 196 1.6 3.2 0.00 0.00 0.00 94 1013.9
20260902070947 23 195 1.6 3.2 0.00 0.00 0.00 93 1014.0
20260902070442 23 195 3.2 3.2 0.00 0.00 0.00 93 1014.1
20260902065941 23 215 1.6 3.2 0.00 0.00 0.00 93 1014.1
20260902065436 23 202 3.2 3.2 0.00 0.00 0.00 94 1014.1
20260902064931 23 205 3.2 3.2 0.00 0.00 0.00 93 1014.3
20260902064427 23 204 1.6 4.8 0.00 0.00 0.00 93 1014.1
20260902063922 23 195 1.6 3.2 0.00 0.00 0.00 93 1014.0
20260902063422 23 204 3.2 4.8 0.00 0.00 0.00 93 1014.1
20260902062917 23 208 3.2 3.2 0.00 0.00 0.00 93 1014.2
20260902062416 23 217 3.2 3.2 0.00 0.00 0.00 92 1014.2
20260902061911 23 217 3.2 3.2 0.00 0.00 0.00 92 1014.3
20260902061406 23 217 1.6 1.6 0.00 0.00 0.00 92 1014.3
20260902060902 23 217 3.2 3.2 0.00 0.00 0.00 92 1014.4
20260902060358 23 217 1.6 3.2 0.00 0.00 0.00 91 1014.3
20260902055854 23 214 3.2 3.2 0.00 0.00 0.00 91 1014.2
20260902055350 23 206 3.2 3.2 0.00 0.00 0.00 91 1014.5
20260902054845 23 234 3.2 4.8 0.00 0.00 0.00 90 1014.5
20260902054340 23 201 3.2 3.2 0.00 0.00 0.00 90 1014.5
20260902053836 23 198 3.2 3.2 0.00 0.00 0.00 90 1014.4
20260902053331 23 176 3.2 3.2 0.00 0.00 0.00 90 1014.5
20260902052830 23 167 1.6 3.2 0.00 0.00 0.00 90 1014.2
20260902052326 23 164 1.6 1.6 0.00 0.00 0.00 90 1014.3
20260902051826 23 164 1.6 1.6 0.00 0.00 0.00 90 1014.5
20260902051326 23 164 0.0 0.0 0.00 0.00 0.00 90 1014.4
20260902050826 23 164 0.0 1.6 0.00 0.00 0.00 90 1014.4
20260902050325 23 164 0.0 1.6 0.00 0.00 0.00 90 1014.4
20260902045820 23 164 1.6 1.6 0.00 0.00 0.00 90 1014.4
20260902045316 23 164 0.0 1.6 0.00 0.00 0.00 90 1014.2
20260902044813 23 164 0.0 0.0 0.00 0.00 0.00 89 1014.2
20260902044308 23 163 1.6 1.6 0.00 0.00 0.00 90 1014.2